Location: Cheyres
(46.8153°N, 6.7877°E)
Time: 12:59:15
(UTC+00:00)

Cosmos 1733 Rocket - Pass Details

Date: 11 May 2021
Orbit: 603 x 628 km, 82.5° (Epoch: 19 June)

Event Time Altitude Azimuth Distance (km) Brightness Sun altitude
Rises 22:58:43 0° 341° (NNW) 2,871 7.8 -24.7°
Reaches altitude 10° 23:01:07 10° 331° (NNW) 1,961 6.5 -24.7°
Maximum altitude 23:04:54 30° 270° (W) 1,091 4.3 -24.8°
Enters shadow 23:04:55 30° 270° (W) 1,091 4.3 -24.8°
